Regional Weather Roundup
Issued by NWS

Home | Current Version | Previous Version | Graphics & Text | Print | Product List | Glossary On
Versions: 1 2 3 4 5 6 7 8 9 10 11 12 13 14 15 16 17 18 19 20 21 22 23 24 25 26 27 28 29 30 31 32 33 34 35 36 37 38 39 40 41 42 43 44 45 46 47 48 49
000
ASUS45 KSLC 300210
RWRUT

UTAH REGIONAL WEATHER ROUNDUP
NATIONAL WEATHER SERVICE SALT LAKE CITY UT
800 PM MDT FRI MAY 29 2015

UTZ001>011-023>025-300300-

NORTHERN UTAH

CITY           SKY/WX    TMP DP  RH WIND       PRES   REMARKS
BRIGHAM CITY   CLEAR     73  37  26 NW3       30.11F
HILL AFB       PTCLDY    71  35  26 NW5       30.13F
LOGAN          CLEAR     71  42  35 CALM      30.12F
OGDEN          CLEAR     70  41  34 NW5       30.11F
PROVO AIRPORT  PTCLDY    72  43  35 CALM      30.12S
SALT LAKE CITY MOCLDY    74  43  32 N6        30.10S
VERNAL         PTCLDY    66  41  40 SW6       30.20R
WENDOVER       CLEAR     73  45  35 E6        30.09F
HEBER CITY     PTCLDY    68  37  32 SW6       30.17R
WEST JORDAN    CLEAR     70  43  37 NW7       30.13S

$$

UTZ012>022-026-027-300300-

SOUTHERN/CENTRAL UTAH

CITY           SKY/WX    TMP DP  RH WIND       PRES   REMARKS
BLANDING       CLEAR     69  20  15 N10       30.25S
BRYCE CANYON   LGT RAIN  57  45  64 NE5       30.31R
CEDAR CITY     CLOUDY    66  38  35 E13G24    30.16S
DELTA          CLEAR     76  32  20 N3        30.12R
HANKSVILLE     CLEAR     75  30  19 E5        30.11S
MILFORD        LGT RAIN  64  47  53 N20       30.17R
MOAB/CYNLANDS  CLEAR     76  34  21 E12       30.10R
PRICE          PTCLDY    69  37  30 NE12      30.18R
ST GEORGE      PTCLDY    86  37  17 NE18G25   29.95S
KANAB          CLOUDY    75  39  27 NE8       30.15R

$$

REGIONAL REPORTS     COLORADO/ARIZONA

CITY           SKY/WX    TMP DP  RH WIND       PRES   REMARKS
CRAIG, CO      PTCLDY    58  41  53 E7        30.27S
GRAND JUNCTION CLEAR     70  41  34 W6        30.14R
RIFLE          CLEAR     68  39  34 N7        30.19R
MONTROSE       CLEAR     68  31  25 NW8       30.21R
CORTEZ         CLEAR     69  23  17 N8        30.17R
PAGE, AZ       PTCLDY    80  36  20 NE9       30.07R
GRAND CANYON   MOCLDY    69  38  32 CALM      30.21S
KINGMAN        CLEAR     87  13   6 SW15      29.98R
FLAGSTAFF      PTCLDY    67  35  30 E6        30.24S

$$

REGIONAL REPORTS    NEVADA/IDAHO/WYOMING

CITY           SKY/WX    TMP DP  RH WIND       PRES   REMARKS
LAS VEGAS, NV  PTCLDY    97  23   7 SE7       29.81R HX  90
ELY            PTCLDY    69  42  37 S6        30.15S
ELKO           SUNNY     76  35  22 NW3       30.07S
POCATELLO, ID  PTCLDY    73  43  33 E3        30.11F
BURLEY         PTCLDY    71  47  42 E8        30.05S
EVANSTON, WY   CLEAR     64  37  36 NE3       30.26S
ROCK SPRINGS   CLEAR     57  40  52 E10       30.28S
KEMMERER       CLEAR     61  34  36 CALM      30.28S

$$



USA.gov is the U.S. government's official web portal to all federal, state and local government web resources and services.